• MPC Preparation (Info)

  • MPEC 2018-N35 : 2018 NX

    The following Minor Planet Electronic Circular may be linked-to from your own Web pages, but must not otherwise be redistributed electronically.

    A form allowing access to any MPEC is at the bottom of this page.


    Read MPEC 2018-N34 Read MPEC 2018-N36


    M.P.E.C. 2018-N35                                Issued 2018 July  9, 21:03 UT
    
         The Minor Planet Electronic Circulars contain information on unusual
             minor planets and routine data on comets.  They are published
        on behalf of Division F of the International Astronomical Union by the
              Minor Planet Center, Smithsonian Astrophysical Observatory,
                              Cambridge, MA 02138, U.S.A.
    
                 Prepared using the Tamkin Foundation Computer Network
    
                                  MPC@CFA.HARVARD.EDU
                URL https://www.minorplanetcenter.net/    ISSN 1523-6714
    
                                        2018 NX
    
    Observations:
         K18N00X  C2018 07 08.34770 18 41 00.11 +37 17 14.3          15.90gUEN035I41
         K18N00X  C2018 07 08.34804 18 40 54.19 +37 16 48.6          15.90gUEN035I41
         K18N00X* C2018 07 08.36397 18 36 34.09 +36 56 55.2          15.09RUEN035I41
         K18N00X  C2018 07 08.36432 18 36 28.49 +36 56 28.8          15.09RUEN035I41
         K18N00X  C2018 07 08.38222 18 31 53.10 +36 33 49.8          15.50RUEN035I41
         K18N00X  C2018 07 08.38257 18 31 47.90 +36 33 23.4          15.50RUEN035I41
         K18N00X  C2018 07 08.42502 18 22 02.50 +35 39 20.8                UEN035I41
         K18N00X  C2018 07 08.42537 18 21 58.20 +35 38 55.1                UEN035I41
         K18N00X KC2018 07 09.13473 17 20 34.34 +27 46 38.4          17.0 GUEN035H36
         K18N00X KC2018 07 09.13729 17 20 24.18 +27 45 41.9          16.9 GUEN035H36
         K18N00X KC2018 07 09.13929 17 20 16.32 +27 44 58.1          16.8 GUEN035H36
         K18N00X KC2018 07 09.14216 17 20 05.30 +27 43 56.6          17.0 GUEN035H36
         K18N00X  C2018 07 09.56729 17 03 36.92 +25 29 39.5          17.2 RoEN035P93
         K18N00X  C2018 07 09.56821 17 03 34.57 +25 29 24.4          17.3 RoEN035P93
         K18N00X  C2018 07 09.56958 17 03 31.08 +25 29 01.9          17.0 RoEN035P93
         K18N00X  C2018 07 09.57097 17 03 27.57 +25 28 38.8          17.2 RoEN035P93
    
    Observer details:
    H36 Sandlot Observatory, Scranton.  Observer G. Hug.  0.56-m reflector + CCD.
    I41 Palomar Mountain--ZTF.  Observer A. U. Tomatic.  Measurers Q.-Z. Ye,
        H.-W. Lin, F. Masci.  1.2-m f/2.4 Schmidt + ZTF camera.
    P93 Space Tracking and Communications Center, JAXA.  Observers K. Nishiyama,
        A. Asami.  1.0-m f/3.0 reflector + CCD.
    
    Orbital elements:
    2018 NX                                                  Earth MOID = 0.0004 AU
    Epoch 2018 Mar. 23.0 TT = JDT 2458200.5                 MPC
    M  11.29770              (2000.0)            P               Q
    n   1.02083640     Peri.  232.66956     -0.92594169     -0.36687867
    a   0.9768592      Node   285.65101     +0.36922255     -0.82948202
    e   0.0719377      Incl.    5.34039     +0.07941472     -0.42114085
    P   0.97           H   27.7           G   0.15           U   6
    Residuals in seconds of arc
    180708 I41  1.3+  0.9-    180708 I41  0.9-  0.2+    180709 P93  0.2+  0.2+
    180708 I41  1.2-  1.3-    180708 I41  0.8+  1.1+    180709 P93  0.1+  0.2+
    180708 I41  0.3-  0.3-    180709 H36  0.3+  0.3-    180709 P93  0.1-  0.3+
    180708 I41  0.8-  0.2-    180709 H36  0.3-  0.7-    180709 P93  0.0   0.1+
    180708 I41  0.4+  0.4-    180709 H36  0.1+  0.5-
    180708 I41  0.6+  0.1-    180709 H36 (3.7+  1.2+)
    
    Ephemeris:
    2018 NX                  a,e,i = 0.98, 0.07, 5                   q = 0.9066
    Date    TT    R. A. (2000) Decl.     Delta      r     Elong.  Phase     V
    2018 06 09    05 53 41.5 -28 53 06   0.05461 0.9832    53.0   124.5    26.6
    ...
    2018 06 24    05 49 17.4 -30 54 05   0.02642 1.0013    54.5   124.2    25.0
    ...
    2018 07 02    05 36 34.4 -30 07 25   0.01132 1.0103    55.5   123.9    23.1
    ...
    2018 07 08    21 06 43.1 +42 17 32   0.0009381.0170   109.6    70.4    15.1
    2018 07 09    17 26 36.7 +28 57 12   0.0026841.0181   122.7    57.1    16.9
    2018 07 10    16 54 23.7 +24 02 19   0.0046071.0191   122.3    57.4    18.1
    ...
    2018 07 16    16 25 29.4 +18 30 36   0.01605 1.0240   117.8    61.4    21.0
    ...
    2018 07 24    16 22 37.8 +17 00 01   0.03104 1.0282   112.6    65.8    22.5
    ...
    2018 08 08    16 26 56.0 +15 29 09   0.05792 1.0288   103.2    73.7    24.2
    
    A. U. Tomatic                (C) Copyright 2018 MPC           M.P.E.C. 2018-N35
    

    Read MPEC 2018-N34 Read MPEC 2018-N36


    MPEC number:

    Enter an MPEC number in one of the following forms:

    • 1997-B01 (the full form)
    • J97B01 (the packed version of the full form)
    • B01 (the abbreviated form)